Location: *
(58.7167°N, 26.1833°E)
Time: 12:27:44
(UTC+00:00)

Cosmos 2173 Rocket - Pass Details

Date: 25 August 2019
Orbit: 945 x 1000 km, 83.0° (Epoch: 23 October)

Event Time Altitude Azimuth Distance (km) Brightness Sun altitude
Rises 23:43:24 0° 346° (NNW) 3,680 7.9 -18.5°
Reaches altitude 10° 23:45:54 10° 346° (NNW) 2,737 7.1 -18.4°
Maximum altitude 23:52:12 84° 259° (W) 999 4.0 -18.1°
Enters shadow 23:56:24 23° 174° (S) 1,980 5.1 -17.8°
